| time (UTC) | temp C | wind direction | speed KPH | gust KPH | rain 1hr cm | rain 24hr cm | rain mn cm | humidity % | barometer mb |
| 20260906022519 | 12 | 270 | 6.4 | 11.3 | 0.00 | 3.05 | 0.05 | 97 | 1006.0 |
| 20260906021516 | 12 | 270 | 6.4 | 12.9 | 0.00 | 3.05 | 0.05 | 97 | 1005.9 |
| 20260906020506 | 12 | 270 | 6.4 | 11.3 | 0.00 | 3.05 | 0.05 | 97 | 1005.8 |
| 20260906015501 | 12 | 270 | 4.8 | 17.7 | 0.00 | 3.05 | 0.05 | 97 | 1005.6 |
| 20260906014456 | 12 | 292 | 4.8 | 14.5 | 0.00 | 3.05 | 0.05 | 97 | 1005.5 |
| 20260906013448 | 11 | 315 | 6.4 | 14.5 | 0.05 | 3.05 | 0.05 | 97 | 1005.4 |
| 20260906012444 | 11 | 270 | 4.8 | 12.9 | 0.05 | 3.05 | 0.05 | 97 | 1005.5 |
| 20260906011435 | 11 | 292 | 6.4 | 14.5 | 0.05 | 3.05 | 0.05 | 97 | 1005.4 |
| 20260906010429 | 12 | 0 | 8.0 | 14.5 | 0.05 | 3.05 | 0.05 | 97 | 1005.6 |
| 20260906005423 | 12 | 292 | 6.4 | 14.5 | 0.05 | 3.05 | 0.05 | 97 | 1005.3 |
| 20260906004417 | 12 | 247 | 6.4 | 12.9 | 0.05 | 3.05 | 0.05 | 97 | 1005.5 |
| 20260906003414 | 12 | 292 | 6.4 | 11.3 | 0.00 | 3.00 | 0.00 | 97 | 1005.5 |
| 20260906002404 | 12 | 315 | 6.4 | 14.5 | 0.00 | 3.00 | 0.00 | 97 | 1005.4 |
| 20260906001359 | 12 | 315 | 6.4 | 17.7 | 0.00 | 3.00 | 0.00 | 97 | 1005.3 |
| 20260906000351 | 12 | 315 | 6.4 | 9.7 | 0.00 | 3.00 | 0.00 | 97 | 1005.3 |
| 20260905235346 | 12 | 292 | 4.8 | 14.5 | 0.00 | 3.00 | 0.00 | 97 | 1005.3 |
| 20260905234342 | 12 | 270 | 6.4 | 14.5 | 0.00 | 3.00 | 0.00 | 97 | 1005.4 |
| 20260905233334 | 12 | 315 | 6.4 | 14.5 | 0.00 | 3.00 | 0.00 | 97 | 1005.4 |
| 20260905232326 | 12 | 292 | 6.4 | 17.7 | 0.00 | 3.00 | 0.00 | 97 | 1005.1 |
| 20260905231320 | 12 | 270 | 3.2 | 14.5 | 0.00 | 3.00 | 0.00 | 97 | 1004.9 |
| 20260905230315 | 12 | 270 | 6.4 | 12.9 | 0.00 | 3.00 | 0.00 | 97 | 1005.3 |
| 20260905225311 | 12 | 315 | 6.4 | 12.9 | 0.00 | 3.02 | 0.00 | 97 | 1005.2 |
| 20260905224303 | 12 | 292 | 6.4 | 12.9 | 0.00 | 3.10 | 0.00 | 97 | 1005.2 |
| 20260905223255 | 12 | 247 | 8.0 | 14.5 | 0.00 | 3.17 | 0.00 | 97 | 1005.1 |
| 20260905222249 | 12 | 337 | 3.2 | 14.5 | 0.00 | 3.25 | 0.00 | 97 | 1005.0 |
| 20260905221244 | 12 | 337 | 6.4 | 14.5 | 0.00 | 3.33 | 0.00 | 97 | 1005.1 |
| 20260905220241 | 12 | 270 | 4.8 | 11.3 | 0.00 | 3.35 | 0.00 | 97 | 1005.1 |
| 20260905215232 | 12 | 270 | 4.8 | 17.7 | 0.00 | 3.45 | 0.00 | 97 | 1005.2 |
| 20260905214225 | 12 | 270 | 6.4 | 17.7 | 0.00 | 3.45 | 0.00 | 97 | 1005.2 |
| 20260905213218 | 12 | 315 | 8.0 | 17.7 | 0.00 | 3.48 | 0.00 | 97 | 1005.0 |
| 20260905212213 | 12 | 270 | 6.4 | 20.9 | 0.00 | 3.51 | 0.00 | 97 | 1005.1 |
| 20260905211210 | 12 | 270 | 6.4 | 17.7 | 0.03 | 3.66 | 0.00 | 97 | 1005.3 |
| 20260905210200 | 12 | 292 | 6.4 | 12.9 | 0.05 | 3.71 | 0.00 | 97 | 1005.3 |
| 20260905205154 | 13 | 225 | 6.4 | 17.7 | 0.18 | 3.84 | 3.71 | 97 | 1005.3 |
| 20260905204148 | 13 | 337 | 8.0 | 14.5 | 0.51 | 3.91 | 3.71 | 97 | 1004.9 |
| 20260905203142 | 12 | 315 | 4.8 | 12.9 | 0.64 | 3.96 | 3.71 | 98 | 1005.2 |
| 20260905202139 | 12 | 247 | 6.4 | 12.9 | 0.64 | 4.01 | 3.71 | 98 | 1005.1 |
| 20260905201129 | 12 | 337 | 3.2 | 11.3 | 0.61 | 4.11 | 3.68 | 98 | 1005.1 |
| 20260905200123 | 12 | 315 | 3.2 | 11.3 | 0.56 | 4.14 | 3.66 | 98 | 1005.2 |
| 20260905195117 | 13 | 292 | 6.4 | 12.9 | 0.46 | 4.09 | 3.58 | 98 | 1005.1 |
| 20260905194112 | 13 | 225 | 4.8 | 17.7 | 0.13 | 3.81 | 3.20 | 97 | 1005.4 |
| 20260905193107 | 13 | 292 | 6.4 | 14.5 | 0.00 | 3.78 | 3.10 | 97 | 1005.2 |
| 20260905192058 | 13 | 292 | 6.4 | 17.7 | 0.15 | 3.86 | 3.10 | 97 | 1005.1 |
| 20260905191053 | 13 | 270 | 6.4 | 20.9 | 0.56 | 3.86 | 3.10 | 97 | 1005.0 |
| 20260905190046 | 13 | 270 | 6.4 | 17.7 | 0.71 | 3.91 | 3.10 | 97 | 1004.7 |
| 20260905185040 | 13 | 247 | 6.4 | 14.5 | 0.71 | 3.96 | 3.10 | 97 | 1004.9 |
| 20260905184037 | 13 | 292 | 6.4 | 14.5 | 0.71 | 4.01 | 3.10 | 97 | 1004.8 |
| 20260905183027 | 13 | 247 | 6.4 | 12.9 | 0.86 | 4.09 | 3.10 | 98 | 1004.8 |
| 20260905182021 | 13 | 112 | 6.4 | 11.3 | 0.86 | 3.99 | 2.95 | 98 | 1004.3 |
| 20260905181016 | 13 | 270 | 3.2 | 9.7 | 0.51 | 3.63 | 2.51 | 97 | 1004.6 |
| 20260905180009 | 13 | 315 | 3.2 | 6.4 | 0.46 | 3.48 | 2.36 | 97 | 1005.0 |
| 20260905175006 | 13 | 270 | 3.2 | 14.5 | 0.48 | 3.51 | 2.36 | 96 | 1004.8 |
| 20260905173957 | 13 | 270 | 3.2 | 14.5 | 0.51 | 3.58 | 2.36 | 95 | 1004.7 |
| 20260905172949 | 13 | 270 | 6.4 | 17.7 | 0.36 | 3.45 | 2.21 | 96 | 1004.8 |
| 20260905171943 | 13 | 270 | 6.4 | 11.3 | 0.18 | 3.30 | 2.03 | 97 | 1005.0 |
| 20260905170938 | 13 | 270 | 6.4 | 17.7 | 0.15 | 3.28 | 2.01 | 96 | 1004.6 |
| 20260905165935 | 14 | 225 | 6.4 | 20.9 | 0.05 | 3.17 | 1.93 | 95 | 1004.5 |
| 20260905164925 | 14 | 292 | 6.4 | 17.7 | 0.03 | 3.15 | 1.88 | 95 | 1004.4 |
| 20260905163920 | 14 | 292 | 6.4 | 17.7 | 0.00 | 3.15 | 1.85 | 94 | 1004.3 |
| 20260905162913 | 14 | 270 | 8.0 | 17.7 | 0.00 | 3.15 | 1.85 | 93 | 1004.0 |
| 20260905161907 | 15 | 337 | 6.4 | 17.7 | 0.00 | 3.15 | 1.85 | 91 | 1004.1 |
| 20260905160903 | 15 | 337 | 9.7 | 22.5 | 0.03 | 3.15 | 1.85 | 91 | 1003.7 |
| 20260905155855 | 15 | 270 | 6.4 | 17.7 | 0.03 | 3.15 | 1.85 | 91 | 1003.7 |
| 20260905154848 | 15 | 270 | 6.4 | 17.7 | 0.03 | 3.15 | 1.85 | 90 | 1003.6 |
| 20260905153842 | 15 | 0 | 6.4 | 17.7 | 0.03 | 3.15 | 1.85 | 91 | 1003.7 |
| 20260905152835 | 15 | 315 | 4.8 | 17.7 | 0.03 | 3.15 | 1.85 | 92 | 1003.5 |
| 20260905151832 | 15 | 292 | 6.4 | 22.5 | 0.03 | 3.17 | 1.85 | 93 | 1003.2 |
| 20260905150824 | 15 | 270 | 4.8 | 12.9 | 0.00 | 3.20 | 1.83 | 92 | 1003.2 |
| 20260905145816 | 15 | 292 | 8.0 | 17.7 | 0.03 | 3.30 | 1.83 | 89 | 1003.1 |
| 20260905144811 | 16 | 247 | 6.4 | 17.7 | 0.10 | 3.30 | 1.83 | 89 | 1003.3 |
| 20260905143805 | 16 | 270 | 8.0 | 17.7 | 0.10 | 3.30 | 1.83 | 90 | 1003.3 |
| 20260905142801 | 15 | 292 | 9.7 | 17.7 | 0.10 | 3.30 | 1.83 | 91 | 1003.2 |
| 20260905141752 | 15 | 247 | 8.0 | 20.9 | 0.10 | 3.30 | 1.83 | 94 | 1003.0 |
| 20260905140746 | 14 | 247 | 8.0 | 22.5 | 0.13 | 3.30 | 1.83 | 94 | 1003.1 |
| 20260905135739 | 14 | 247 | 11.3 | 17.7 | 0.28 | 3.28 | 1.80 | 94 | 1003.3 |
| 20260905134734 | 14 | 270 | 11.3 | 17.7 | 0.38 | 3.20 | 1.75 | 94 | 1003.1 |
| 20260905133731 | 14 | 292 | 12.9 | 24.1 | 0.38 | 3.20 | 1.75 | 93 | 1003.1 |
| 20260905132722 | 14 | 292 | 6.4 | 22.5 | 0.38 | 3.20 | 1.75 | 95 | 1003.1 |
| 20260905131715 | 14 | 292 | 6.4 | 22.5 | 0.43 | 3.20 | 1.75 | 95 | 1002.7 |
| 20260905130708 | 14 | 247 | 14.5 | 27.4 | 0.38 | 3.17 | 1.70 | 96 | 1002.7 |
| 20260905125703 | 14 | 247 | 14.5 | 29.0 | 0.30 | 2.97 | 1.52 | 94 | 1002.3 |
| 20260905124700 | 15 | 202 | 12.9 | 38.6 | 0.18 | 2.82 | 1.35 | 92 | 1002.0 |
| 20260905123649 | 15 | 270 | 9.7 | 17.7 | 0.18 | 2.82 | 1.35 | 95 | 1001.7 |
| 20260905122643 | 15 | 315 | 4.8 | 11.3 | 0.18 | 2.82 | 1.35 | 96 | 1001.8 |
| 20260905121637 | 14 | 270 | 3.2 | 11.3 | 0.15 | 2.79 | 1.32 | 95 | 1001.7 |
| 20260905120633 | 14 | 180 | 6.4 | 14.5 | 0.15 | 2.79 | 1.32 | 95 | 1001.7 |
| 20260905115628 | 15 | 247 | 4.8 | 14.5 | 0.05 | 2.67 | 1.19 | 93 | 1001.6 |
| 20260905114619 | 15 | 270 | 12.9 | 27.4 | 0.03 | 2.64 | 1.17 | 90 | 1001.3 |
| 20260905113613 | 16 | 337 | 8.0 | 25.7 | 0.03 | 2.64 | 1.17 | 89 | 1001.7 |
| 20260905112607 | 16 | 292 | 6.4 | 22.5 | 0.03 | 2.64 | 1.17 | 89 | 1001.6 |
| 20260905111600 | 16 | 247 | 6.4 | 27.4 | 0.18 | 2.64 | 1.17 | 89 | 1001.1 |
| 20260905110557 | 16 | 247 | 16.1 | 37.0 | 0.18 | 2.64 | 1.17 | 87 | 1001.2 |
| 20260905105548 | 16 | 315 | 14.5 | 33.8 | 0.15 | 2.62 | 1.14 | 86 | 1000.8 |
| 20260905104542 | 17 | 337 | 12.9 | 27.4 | 0.15 | 2.62 | 1.14 | 86 | 1000.8 |
| 20260905103537 | 16 | 292 | 8.0 | 24.1 | 0.15 | 2.62 | 1.14 | 92 | 1000.7 |
| 20260905102530 | 15 | 270 | 11.3 | 25.7 | 0.15 | 2.62 | 1.14 | 93 | 1000.6 |
| 20260905101526 | 16 | 270 | 12.9 | 27.4 | 0.00 | 2.46 | 0.99 | 89 | 1000.4 |
| 20260905100518 | 17 | 315 | 6.4 | 20.9 | 0.00 | 2.46 | 0.99 | 86 | 1000.1 |
| 20260905095511 | 16 | 337 | 11.3 | 17.7 | 0.00 | 2.46 | 0.99 | 87 | 1000.4 |
| 20260905094505 | 17 | 337 | 9.7 | 24.1 | 0.00 | 2.46 | 0.99 | 89 | 1000.3 |
| 20260905093458 | 16 | 270 | 6.4 | 17.7 | 0.00 | 2.46 | 0.99 | 89 | 1000.2 |
| 20260905092456 | 15 | 292 | 6.4 | 22.5 | 0.00 | 2.46 | 0.99 | 91 | 1000.3 |
| 20260905091445 | 15 | 270 | 9.7 | 22.5 | 0.00 | 2.46 | 0.99 | 91 | 1000.2 |
| 20260905090441 | 15 | 270 | 16.1 | 29.0 | 0.00 | 2.46 | 0.99 | 91 | 1000.0 |
| 20260905085434 | 16 | 292 | 6.4 | 25.7 | 0.03 | 2.46 | 0.99 | 89 | 1000.1 |
| 20260905084427 | 16 | 0 | 12.9 | 25.7 | 0.03 | 2.46 | 0.99 | 91 | 1000.0 |
| 20260905083425 | 15 | 247 | 6.4 | 22.5 | 0.03 | 2.46 | 0.99 | 92 | 999.8 |
| 20260905082415 | 15 | 225 | 14.5 | 25.7 | 0.03 | 2.46 | 0.99 | 91 | 999.6 |
| 20260905081409 | 15 | 270 | 11.3 | 27.4 | 0.03 | 2.46 | 0.99 | 91 | 999.3 |
| 20260905080403 | 15 | 270 | 9.7 | 29.0 | 0.13 | 2.46 | 0.99 | 92 | 999.0 |
| 20260905075356 | 15 | 315 | 12.9 | 22.5 | 0.13 | 2.46 | 0.97 | 93 | 998.9 |
| 20260905074354 | 15 | 270 | 9.7 | 22.5 | 0.13 | 2.49 | 0.97 | 94 | 998.8 |
| 20260905073345 | 15 | 225 | 8.0 | 24.1 | 0.13 | 2.49 | 0.97 | 95 | 998.5 |
| 20260905072338 | 14 | 247 | 8.0 | 33.8 | 0.13 | 2.49 | 0.97 | 96 | 998.6 |
| 20260905071332 | 15 | 247 | 12.9 | 29.0 | 0.13 | 2.54 | 0.97 | 96 | 998.5 |
| 20260905070326 | 15 | 315 | 8.0 | 29.0 | 0.03 | 2.59 | 0.86 | 94 | 998.5 |
| 20260905065322 | 15 | 247 | 12.9 | 20.9 | 0.00 | 2.67 | 0.84 | 94 | 998.3 |
| 20260905064312 | 15 | 0 | 6.4 | 17.7 | 0.00 | 2.67 | 0.84 | 95 | 998.0 |
| 20260905063307 | 15 | 270 | 8.0 | 17.7 | 0.00 | 2.67 | 0.84 | 95 | 997.8 |
| 20260905062301 | 15 | 270 | 8.0 | 17.7 | 0.00 | 2.67 | 0.84 | 96 | 997.6 |
| 20260905061255 | 14 | 315 | 6.4 | 14.5 | 0.00 | 2.67 | 0.84 | 97 | 997.6 |
| 20260905060252 | 14 | 292 | 4.8 | 17.7 | 0.00 | 2.67 | 0.84 | 97 | 997.9 |
| 20260905055242 | 14 | 270 | 6.4 | 17.7 | 0.00 | 2.67 | 0.84 | 97 | 997.4 |
| 20260905054236 | 14 | 292 | 6.4 | 14.5 | 0.00 | 2.67 | 0.84 | 97 | 997.3 |
| 20260905053229 | 14 | 247 | 4.8 | 12.9 | 0.03 | 2.67 | 0.84 | 98 | 997.3 |
| 20260905052223 | 13 | 315 | 3.2 | 11.3 | 0.05 | 2.67 | 0.84 | 98 | 996.9 |
| 20260905051220 | 13 | 337 | 6.4 | 11.3 | 0.10 | 2.67 | 0.84 | 99 | 997.2 |
| 20260905050211 | 13 | 292 | 3.2 | 11.3 | 0.13 | 2.67 | 0.84 | 99 | 997.1 |
| 20260905045205 | 13 | 270 | 3.2 | 9.7 | 0.13 | 2.67 | 0.84 | 99 | 997.2 |
| 20260905044158 | 13 | 292 | 4.8 | 9.7 | 0.13 | 2.67 | 0.84 | 99 | 997.1 |
| 20260905043154 | 13 | 315 | 6.4 | 14.5 | 0.10 | 2.64 | 0.81 | 99 | 997.2 |
| 20260905042149 | 13 | 337 | 8.0 | 14.5 | 0.05 | 2.62 | 0.79 | 99 | 996.8 |
| 20260905041140 | 13 | 292 | 4.8 | 9.7 | 0.03 | 2.59 | 0.76 | 99 | 996.7 |
| 20260905040134 | 13 | 292 | 6.4 | 9.7 | 0.00 | 2.54 | 0.71 | 99 | 996.8 |
| 20260905035128 | 13 | 225 | 3.2 | 6.4 | 0.00 | 2.54 | 0.71 | 99 | 996.8 |
| 20260905034122 | 13 | 292 | 3.2 | 6.4 | 0.00 | 2.54 | 0.71 | 99 | 997.0 |
| 20260905033118 | 13 | 270 | 3.2 | 11.3 | 0.00 | 2.54 | 0.71 | 99 | 996.8 |
| 20260905032109 | 13 | 270 | 4.8 | 6.4 | 0.00 | 2.54 | 0.71 | 99 | 997.1 |
| 20260905031103 | 13 | 0 | 3.2 | 6.4 | 0.00 | 2.54 | 0.71 | 99 | 997.0 |
| 20260905030058 | 13 | 292 | 3.2 | 9.7 | 0.00 | 2.54 | 0.71 | 99 | 997.1 |
| 20260905025051 | 13 | 270 | 1.6 | 9.7 | 0.00 | 2.54 | 0.71 | 99 | 996.9 |
| 20260905024047 | 13 | 270 | 3.2 | 12.9 | 0.00 | 2.54 | 0.71 | 99 | 997.0 |